{"data":{"norad_id":54209,"intl_designator":"2022-141BE","name":"STARLINK-5259","alt_names":[],"object_type":"PAYLOAD","status":"ACTIVE","operator":null,"country":"US","launch_date":"2022-10-28","launch_site_code":"AFWTR","launch_vehicle":null,"mission":null,"orbit_class":"UNKNOWN","rcs_meters":null,"size_class":null,"mass_kg":null,"dimensions":null,"purposes":["comms"],"wikipedia_slug":null,"has_3d_model":false,"image_url":null,"decayed_at":null,"tle_current":{"epoch":"2026-05-24T20:55:29.091936Z","epoch_age_seconds":96850,"freshness":"FRESH","line1":"1 54209U 22141BE  26144.87186449  .00001656  00000+0  12208-3 0  9997","line2":"2 54209  53.2145   1.7857 0001192 115.4153 244.6962 15.08852036197641","mean_motion":15.08852036,"eccentricity":0.0001192,"inclination_deg":53.2145,"raan_deg":1.7857,"arg_perigee_deg":115.4153,"mean_anomaly_deg":244.6962,"bstar":0.00012208,"rev_number":19764,"period_min":95.43679337952,"perigee_km":538.88199301462,"apogee_km":540.53120692885,"semimajor_km":6917.8435999717,"source":"CELESTRAK","updated_at":"2026-05-25T13:38:17.687389Z"}}}